Back to catalog

NOAA 16 DEB

AliveSSO
NORAD 41155·DEBRIS·🇺🇸 United States

Launched Sep 21, 2000 from Vandenberg Space Force Base

Loading…

Next Passes (next 24 hours)

TLE

FreshSource: Space-Track

Epoch: Sep 13, 2026, 19:41 UTC

1 41155U 00055CN  26256.82076116  .00003715  00000-0  12361-2 0  9999
2 41155  98.8953  33.1175 0016001 261.9917  97.9454 14.38216972559070

Track NOAA 16 DEB in real time with AllMySat

Download on the App Store